Location: Cantaing
(50.1487°N, 3.1675°E)
Time: 15:11:23
(UTC+00:00)

Cosmos 2278 Rocket - Pass Details

Date: 14 January 2026
Orbit: 839 x 846 km, 71.0° (Epoch: 18 February)

Event Time Altitude Azimuth Distance (km) Brightness Sun altitude
Rises 06:54:25 0° 230° (SW) 3,384 5.1 -7.4°
Reaches altitude 10° 06:56:59 10° 238° (WSW) 2,454 4.3 -7.0°
Maximum altitude 07:02:19 43° 309° (NW) 1,177 2.6 -6.3°
Drops below altitude 10° 07:07:42 10° 20° (NNE) 2,472 4.6 -5.5°
Sets 07:10:18 0° 28° (NNE) 3,411 5.4 -5.1°
